Location: Aigremont
(47.7188°N, 3.8925°E)
Time: 21:53:48
(UTC+00:00)

Cosmos 1725 Rocket - Pass Details

Date: 18 February 2020
Orbit: 963 x 990 km, 82.9° (Epoch: 29 March)

Event Time Altitude Azimuth Distance (km) Brightness Sun altitude
Rises 05:43:33 0° 350° (N) 3,680 6.9 -11.2°
Reaches altitude 10° 05:46:03 10° 349° (N) 2,733 6.2 -10.8°
Maximum altitude 05:52:19 82° 264° (W) 996 4.0 -9.7°
Drops below altitude 10° 05:58:36 10° 177° (S) 2,732 6.5 -8.7°
Sets 06:01:06 0° 177° (S) 3,680 7.2 -8.3°
